| time (UTC) | temp C | wind direction | speed KPH | gust KPH | rain 1hr cm | rain 24hr cm | rain mn cm | humidity % | barometer mb |
| 20260505024559 | 17 | 242 | 9.7 | 17.7 | 0.00 | 0.00 | 0.00 | 65 | 1022.8 |
| 20260505023102 | 16 | 237 | 9.7 | 14.5 | 0.00 | 0.00 | 0.00 | 64 | 1023.0 |
| 20260505021559 | 16 | 260 | 9.7 | 16.1 | 0.00 | 0.00 | 0.00 | 66 | 1022.9 |
| 20260505020058 | 16 | 249 | 6.4 | 11.3 | 0.00 | 0.00 | 0.00 | 67 | 1023.1 |
| 20260505014535 | 16 | 250 | 6.4 | 14.5 | 0.00 | 0.00 | 0.00 | 66 | 1023.1 |
| 20260505013031 | 16 | 254 | 6.4 | 14.5 | 0.00 | 0.00 | 0.00 | 67 | 1023.1 |
| 20260505011546 | 16 | 251 | 6.4 | 11.3 | 0.00 | 0.00 | 0.00 | 70 | 1022.9 |
| 20260505010026 | 16 | 257 | 4.8 | 12.9 | 0.00 | 0.00 | 0.00 | 69 | 1022.9 |
| 20260505004522 | 15 | 260 | 6.4 | 14.5 | 0.00 | 0.00 | 0.00 | 71 | 1022.7 |
| 20260505003019 | 15 | 233 | 8.0 | 14.5 | 0.00 | 0.00 | 0.00 | 74 | 1022.6 |
| 20260505001515 | 15 | 236 | 1.6 | 6.4 | 0.00 | 0.00 | 0.00 | 81 | 1022.5 |
| 20260505000014 | 14 | 213 | 4.8 | 11.3 | 0.00 | 0.00 | 0.00 | 87 | 1022.5 |
| 20260504234556 | 14 | 78 | 0.0 | 1.6 | 0.00 | 0.00 | 0.00 | 92 | 1022.4 |
| 20260504233102 | 13 | 77 | 0.0 | 1.6 | 0.00 | 0.00 | 0.00 | 92 | 1022.4 |
| 20260504231534 | 13 | 43 | 0.0 | 3.2 | 0.00 | 0.00 | 0.00 | 93 | 1022.4 |
| 20260504230030 | 13 | 42 | 0.0 | 1.6 | 0.00 | 0.00 | 0.00 | 93 | 1022.2 |
| 20260504224533 | 12 | 42 | 0.0 | 1.6 | 0.00 | 0.00 | 0.00 | 93 | 1022.0 |
| 20260504223026 | 12 | 50 | 0.0 | 4.8 | 0.00 | 0.00 | 0.00 | 93 | 1021.9 |
| 20260504221522 | 12 | 84 | 0.0 | 3.2 | 0.00 | 0.00 | 0.00 | 93 | 1021.8 |
| 20260504220020 | 12 | 41 | 0.0 | 3.2 | 0.00 | 0.00 | 0.00 | 93 | 1021.6 |
| 20260504214519 | 12 | 69 | 0.0 | 0.0 | 0.00 | 0.00 | 0.00 | 92 | 1021.4 |
| 20260504213016 | 12 | 87 | 0.0 | 0.0 | 0.00 | 0.00 | 0.00 | 92 | 1021.3 |
| 20260504211552 | 12 | 43 | 0.0 | 0.0 | 0.00 | 0.00 | 0.00 | 92 | 1021.2 |
| 20260504210050 | 12 | 20 | 0.0 | 4.8 | 0.00 | 0.00 | 0.00 | 92 | 1021.0 |
| 20260504204551 | 12 | 45 | 0.0 | 4.8 | 0.00 | 0.00 | 0.00 | 91 | 1020.7 |
| 20260504203050 | 12 | 64 | 3.2 | 6.4 | 0.00 | 0.00 | 0.00 | 91 | 1020.6 |
| 20260504201546 | 12 | 93 | 0.0 | 3.2 | 0.00 | 0.00 | 0.00 | 91 | 1020.5 |
| 20260504200044 | 12 | 50 | 3.2 | 6.4 | 0.00 | 0.00 | 0.00 | 90 | 1020.4 |
| 20260504194545 | 12 | 88 | 0.0 | 4.8 | 0.00 | 0.00 | 0.00 | 89 | 1020.3 |
| 20260504193039 | 12 | 89 | 1.6 | 4.8 | 0.00 | 0.00 | 0.00 | 88 | 1020.1 |
| 20260504191524 | 13 | 115 | 0.0 | 1.6 | 0.00 | 0.00 | 0.00 | 88 | 1020.1 |
| 20260504190024 | 13 | 122 | 4.8 | 8.0 | 0.00 | 0.00 | 0.00 | 86 | 1019.9 |
| 20260504184523 | 14 | 153 | 9.7 | 14.5 | 0.00 | 0.00 | 0.00 | 84 | 1019.9 |
| 20260504183018 | 15 | 206 | 14.5 | 19.3 | 0.00 | 0.00 | 0.00 | 82 | 1019.7 |
| 20260504181517 | 14 | 213 | 11.3 | 19.3 | 0.00 | 0.00 | 0.00 | 83 | 1019.6 |
| 20260504180017 | 14 | 216 | 11.3 | 22.5 | 0.00 | 0.00 | 0.00 | 84 | 1019.6 |
| 20260504174516 | 14 | 242 | 12.9 | 20.9 | 0.00 | 0.00 | 0.00 | 84 | 1019.5 |
| 20260504173018 | 14 | 225 | 11.3 | 19.3 | 0.00 | 0.00 | 0.00 | 84 | 1019.5 |
| 20260504171557 | 14 | 209 | 12.9 | 19.3 | 0.00 | 0.00 | 0.00 | 86 | 1019.7 |
| 20260504090124 | 16 | 192 | 19.3 | 27.4 | 0.00 | 0.00 | 0.00 | 73 | 1016.4 |
| 20260504081541 | 16 | 232 | 19.3 | 27.4 | 0.00 | 0.00 | 0.00 | 73 | 1015.8 |
| 20260504050008 | 18 | 233 | 19.3 | 27.4 | 0.00 | 0.00 | 0.00 | 70 | 1014.1 |
| 20260504044515 | 18 | 237 | 17.7 | 29.0 | 0.00 | 0.00 | 0.00 | 72 | 1013.8 |
| 20260504043007 | 18 | 256 | 17.7 | 29.0 | 0.00 | 0.00 | 0.00 | 72 | 1013.8 |
| 20260504041511 | 18 | 257 | 20.9 | 25.7 | 0.00 | 0.00 | 0.00 | 72 | 1013.7 |
| 20260504040106 | 18 | 229 | 17.7 | 29.0 | 0.00 | 0.00 | 0.00 | 74 | 1013.9 |
| 20260504034553 | 18 | 244 | 19.3 | 30.6 | 0.00 | 0.00 | 0.00 | 73 | 1013.8 |
| 20260504033053 | 17 | 232 | 17.7 | 29.0 | 0.00 | 0.00 | 0.00 | 74 | 1013.8 |
| 20260504031550 | 17 | 237 | 19.3 | 29.0 | 0.00 | 0.00 | 0.00 | 74 | 1013.8 |
| 20260504030048 | 17 | 240 | 20.9 | 29.0 | 0.00 | 0.00 | 0.00 | 74 | 1014.0 |